Index of /20260507/WXO-DD/model_rdps/10km/06/080
Name Last modified Size Description
Parent Directory -
20260507T06Z_MSC_RDPS_AbsoluteVorticity_IsbL-0250_RLatLon0.09_PT080H.grib2 2026-05-07 09:04 605K
20260507T06Z_MSC_RDPS_AbsoluteVorticity_IsbL-0500_RLatLon0.09_PT080H.grib2 2026-05-07 09:04 567K
20260507T06Z_MSC_RDPS_AbsoluteVorticity_IsbL-0700_RLatLon0.09_PT080H.grib2 2026-05-07 09:04 610K
20260507T06Z_MSC_RDPS_AbsoluteVorticity_IsbL-0850_RLatLon0.09_PT080H.grib2 2026-05-07 09:04 785K
20260507T06Z_MSC_RDPS_AirTemp_AGL-120m_RLatLon0.09_PT080H.grib2 2026-05-07 09:04 384K
20260507T06Z_MSC_RDPS_AirTemp_AGL-2m_RLatLon0.09_PT080H.grib2 2026-05-07 09:04 625K
20260507T06Z_MSC_RDPS_AirTemp_AGL-40m_RLatLon0.09_PT080H.grib2 2026-05-07 09:04 396K
20260507T06Z_MSC_RDPS_AirTemp_AGL-80m_RLatLon0.09_PT080H.grib2 2026-05-07 09:04 390K
20260507T06Z_MSC_RDPS_AirTemp_IsbL-0001_RLatLon0.09_PT080H.grib2 2026-05-07 09:04 243K
20260507T06Z_MSC_RDPS_AirTemp_IsbL-0005_RLatLon0.09_PT080H.grib2 2026-05-07 09:04 377K
20260507T06Z_MSC_RDPS_AirTemp_IsbL-0010_RLatLon0.09_PT080H.grib2 2026-05-07 09:04 389K
20260507T06Z_MSC_RDPS_AirTemp_IsbL-0020_RLatLon0.09_PT080H.grib2 2026-05-07 09:04 317K
20260507T06Z_MSC_RDPS_AirTemp_IsbL-0030_RLatLon0.09_PT080H.grib2 2026-05-07 09:04 334K
20260507T06Z_MSC_RDPS_AirTemp_IsbL-0050_RLatLon0.09_PT080H.grib2 2026-05-07 09:04 307K
20260507T06Z_MSC_RDPS_AirTemp_IsbL-0100_RLatLon0.09_PT080H.grib2 2026-05-07 09:04 427K
20260507T06Z_MSC_RDPS_AirTemp_IsbL-0150_RLatLon0.09_PT080H.grib2 2026-05-07 09:04 402K
20260507T06Z_MSC_RDPS_AirTemp_IsbL-0175_RLatLon0.09_PT080H.grib2 2026-05-07 09:04 399K
20260507T06Z_MSC_RDPS_AirTemp_IsbL-0200_RLatLon0.09_PT080H.grib2 2026-05-07 09:04 404K
20260507T06Z_MSC_RDPS_AirTemp_IsbL-0225_RLatLon0.09_PT080H.grib2 2026-05-07 09:04 407K
20260507T06Z_MSC_RDPS_AirTemp_IsbL-0250_RLatLon0.09_PT080H.grib2 2026-05-07 09:04 419K
20260507T06Z_MSC_RDPS_AirTemp_IsbL-0275_RLatLon0.09_PT080H.grib2 2026-05-07 09:04 401K
20260507T06Z_MSC_RDPS_AirTemp_IsbL-0300_RLatLon0.09_PT080H.grib2 2026-05-07 09:04 406K
20260507T06Z_MSC_RDPS_AirTemp_IsbL-0350_RLatLon0.09_PT080H.grib2 2026-05-07 09:04 417K
20260507T06Z_MSC_RDPS_AirTemp_IsbL-0400_RLatLon0.09_PT080H.grib2 2026-05-07 09:04 422K
20260507T06Z_MSC_RDPS_AirTemp_IsbL-0450_RLatLon0.09_PT080H.grib2 2026-05-07 09:04 431K
20260507T06Z_MSC_RDPS_AirTemp_IsbL-0500_RLatLon0.09_PT080H.grib2 2026-05-07 09:04 440K
20260507T06Z_MSC_RDPS_AirTemp_IsbL-0550_RLatLon0.09_PT080H.grib2 2026-05-07 09:04 456K
20260507T06Z_MSC_RDPS_AirTemp_IsbL-0600_RLatLon0.09_PT080H.grib2 2026-05-07 09:04 473K
20260507T06Z_MSC_RDPS_AirTemp_IsbL-0650_RLatLon0.09_PT080H.grib2 2026-05-07 09:04 488K
20260507T06Z_MSC_RDPS_AirTemp_IsbL-0700_RLatLon0.09_PT080H.grib2 2026-05-07 09:04 514K
20260507T06Z_MSC_RDPS_AirTemp_IsbL-0750_RLatLon0.09_PT080H.grib2 2026-05-07 09:04 558K
20260507T06Z_MSC_RDPS_AirTemp_IsbL-0800_RLatLon0.09_PT080H.grib2 2026-05-07 09:04 620K
20260507T06Z_MSC_RDPS_AirTemp_IsbL-0850_RLatLon0.09_PT080H.grib2 2026-05-07 09:04 636K
20260507T06Z_MSC_RDPS_AirTemp_IsbL-0875_RLatLon0.09_PT080H.grib2 2026-05-07 09:04 655K
20260507T06Z_MSC_RDPS_AirTemp_IsbL-0900_RLatLon0.09_PT080H.grib2 2026-05-07 09:04 663K
20260507T06Z_MSC_RDPS_AirTemp_IsbL-0925_RLatLon0.09_PT080H.grib2 2026-05-07 09:04 664K
20260507T06Z_MSC_RDPS_AirTemp_IsbL-0950_RLatLon0.09_PT080H.grib2 2026-05-07 09:04 532K
20260507T06Z_MSC_RDPS_AirTemp_IsbL-0970_RLatLon0.09_PT080H.grib2 2026-05-07 09:04 530K
20260507T06Z_MSC_RDPS_AirTemp_IsbL-0985_RLatLon0.09_PT080H.grib2 2026-05-07 09:04 517K
20260507T06Z_MSC_RDPS_AirTemp_IsbL-1000_RLatLon0.09_PT080H.grib2 2026-05-07 09:04 505K
20260507T06Z_MSC_RDPS_AirTemp_IsbL-1015_RLatLon0.09_PT080H.grib2 2026-05-07 09:04 504K
20260507T06Z_MSC_RDPS_Albedo_Sfc_RLatLon0.09_PT080H.grib2 2026-05-07 09:04 158K
20260507T06Z_MSC_RDPS_CAPE_Sfc_RLatLon0.09_PT080H.grib2 2026-05-07 09:04 1.8M
20260507T06Z_MSC_RDPS_CIN_Sfc_RLatLon0.09_PT080H.grib2 2026-05-07 09:04 1.2M
20260507T06Z_MSC_RDPS_CloudWater_EAtm_RLatLon0.09_PT080H.grib2 2026-05-07 09:04 226K
20260507T06Z_MSC_RDPS_ConvectivePrecip-Accum_Sfc_RLatLon0.09_PT080H.grib2 2026-05-07 09:04 1.3M
20260507T06Z_MSC_RDPS_DewPointDepression_AGL-2m_RLatLon0.09_PT080H.grib2 2026-05-07 09:04 413K
20260507T06Z_MSC_RDPS_DewPointDepression_IsbL-0001_RLatLon0.09_PT080H.grib2 2026-05-07 09:04 193
20260507T06Z_MSC_RDPS_DewPointDepression_IsbL-0005_RLatLon0.09_PT080H.grib2 2026-05-07 09:04 193
20260507T06Z_MSC_RDPS_DewPointDepression_IsbL-0010_RLatLon0.09_PT080H.grib2 2026-05-07 09:04 193
20260507T06Z_MSC_RDPS_DewPointDepression_IsbL-0020_RLatLon0.09_PT080H.grib2 2026-05-07 09:04 193
20260507T06Z_MSC_RDPS_DewPointDepression_IsbL-0030_RLatLon0.09_PT080H.grib2 2026-05-07 09:04 193
20260507T06Z_MSC_RDPS_DewPointDepression_IsbL-0050_RLatLon0.09_PT080H.grib2 2026-05-07 09:04 107K
20260507T06Z_MSC_RDPS_DewPointDepression_IsbL-0100_RLatLon0.09_PT080H.grib2 2026-05-07 09:04 109K
20260507T06Z_MSC_RDPS_DewPointDepression_IsbL-0150_RLatLon0.09_PT080H.grib2 2026-05-07 09:04 139K
20260507T06Z_MSC_RDPS_DewPointDepression_IsbL-0175_RLatLon0.09_PT080H.grib2 2026-05-07 09:04 164K
20260507T06Z_MSC_RDPS_DewPointDepression_IsbL-0200_RLatLon0.09_PT080H.grib2 2026-05-07 09:04 208K
20260507T06Z_MSC_RDPS_DewPointDepression_IsbL-0225_RLatLon0.09_PT080H.grib2 2026-05-07 09:04 257K
20260507T06Z_MSC_RDPS_DewPointDepression_IsbL-0250_RLatLon0.09_PT080H.grib2 2026-05-07 09:04 302K
20260507T06Z_MSC_RDPS_DewPointDepression_IsbL-0275_RLatLon0.09_PT080H.grib2 2026-05-07 09:04 308K
20260507T06Z_MSC_RDPS_DewPointDepression_IsbL-0300_RLatLon0.09_PT080H.grib2 2026-05-07 09:04 321K
20260507T06Z_MSC_RDPS_DewPointDepression_IsbL-0350_RLatLon0.09_PT080H.grib2 2026-05-07 09:04 328K
20260507T06Z_MSC_RDPS_DewPointDepression_IsbL-0400_RLatLon0.09_PT080H.grib2 2026-05-07 09:04 335K
20260507T06Z_MSC_RDPS_DewPointDepression_IsbL-0450_RLatLon0.09_PT080H.grib2 2026-05-07 09:04 341K
20260507T06Z_MSC_RDPS_DewPointDepression_IsbL-0500_RLatLon0.09_PT080H.grib2 2026-05-07 09:04 343K
20260507T06Z_MSC_RDPS_DewPointDepression_IsbL-0550_RLatLon0.09_PT080H.grib2 2026-05-07 09:04 353K
20260507T06Z_MSC_RDPS_DewPointDepression_IsbL-0600_RLatLon0.09_PT080H.grib2 2026-05-07 09:04 365K
20260507T06Z_MSC_RDPS_DewPointDepression_IsbL-0650_RLatLon0.09_PT080H.grib2 2026-05-07 09:04 375K
20260507T06Z_MSC_RDPS_DewPointDepression_IsbL-0700_RLatLon0.09_PT080H.grib2 2026-05-07 09:04 386K
20260507T06Z_MSC_RDPS_DewPointDepression_IsbL-0750_RLatLon0.09_PT080H.grib2 2026-05-07 09:04 404K
20260507T06Z_MSC_RDPS_DewPointDepression_IsbL-0800_RLatLon0.09_PT080H.grib2 2026-05-07 09:04 448K
20260507T06Z_MSC_RDPS_DewPointDepression_IsbL-0850_RLatLon0.09_PT080H.grib2 2026-05-07 09:04 471K
20260507T06Z_MSC_RDPS_DewPointDepression_IsbL-0875_RLatLon0.09_PT080H.grib2 2026-05-07 09:04 465K
20260507T06Z_MSC_RDPS_DewPointDepression_IsbL-0900_RLatLon0.09_PT080H.grib2 2026-05-07 09:04 453K
20260507T06Z_MSC_RDPS_DewPointDepression_IsbL-0925_RLatLon0.09_PT080H.grib2 2026-05-07 09:04 445K
20260507T06Z_MSC_RDPS_DewPointDepression_IsbL-0950_RLatLon0.09_PT080H.grib2 2026-05-07 09:04 440K
20260507T06Z_MSC_RDPS_DewPointDepression_IsbL-0970_RLatLon0.09_PT080H.grib2 2026-05-07 09:04 438K
20260507T06Z_MSC_RDPS_DewPointDepression_IsbL-0985_RLatLon0.09_PT080H.grib2 2026-05-07 09:04 436K
20260507T06Z_MSC_RDPS_DewPointDepression_IsbL-1000_RLatLon0.09_PT080H.grib2 2026-05-07 09:04 431K
20260507T06Z_MSC_RDPS_DewPointDepression_IsbL-1015_RLatLon0.09_PT080H.grib2 2026-05-07 09:04 422K
20260507T06Z_MSC_RDPS_DewPoint_AGL-2m_RLatLon0.09_PT080H.grib2 2026-05-07 09:04 395K
20260507T06Z_MSC_RDPS_DownwardLongwaveRadiationFlux-Accum_Sfc_RLatLon0.09_PT080H.grib2 2026-05-07 09:04 439K
20260507T06Z_MSC_RDPS_DownwardShortwaveRadiationFlux-Accum_NTAtm_RLatLon0.09_PT080H.grib2 2026-05-07 09:04 105K
20260507T06Z_MSC_RDPS_DownwardShortwaveRadiationFlux-Accum_Sfc_RLatLon0.09_PT080H.grib2 2026-05-07 09:04 640K
20260507T06Z_MSC_RDPS_FreezingRain-Accum1h_Sfc_RLatLon0.09_PT080H.grib2 2026-05-07 09:04 59K
20260507T06Z_MSC_RDPS_FreezingRain-Accum_Sfc_RLatLon0.09_PT080H.grib2 2026-05-07 09:04 208K
20260507T06Z_MSC_RDPS_GeopotentialHeight_IsbL-0001_RLatLon0.09_PT080H.grib2 2026-05-07 09:04 245K
20260507T06Z_MSC_RDPS_GeopotentialHeight_IsbL-0005_RLatLon0.09_PT080H.grib2 2026-05-07 09:04 338K
20260507T06Z_MSC_RDPS_GeopotentialHeight_IsbL-0010_RLatLon0.09_PT080H.grib2 2026-05-07 09:04 339K
20260507T06Z_MSC_RDPS_GeopotentialHeight_IsbL-0020_RLatLon0.09_PT080H.grib2 2026-05-07 09:04 306K
20260507T06Z_MSC_RDPS_GeopotentialHeight_IsbL-0030_RLatLon0.09_PT080H.grib2 2026-05-07 09:04 307K
20260507T06Z_MSC_RDPS_GeopotentialHeight_IsbL-0050_RLatLon0.09_PT080H.grib2 2026-05-07 09:04 307K
20260507T06Z_MSC_RDPS_GeopotentialHeight_IsbL-0100_RLatLon0.09_PT080H.grib2 2026-05-07 09:04 283K
20260507T06Z_MSC_RDPS_GeopotentialHeight_IsbL-0150_RLatLon0.09_PT080H.grib2 2026-05-07 09:04 225K
20260507T06Z_MSC_RDPS_GeopotentialHeight_IsbL-0175_RLatLon0.09_PT080H.grib2 2026-05-07 09:04 227K
20260507T06Z_MSC_RDPS_GeopotentialHeight_IsbL-0200_RLatLon0.09_PT080H.grib2 2026-05-07 09:04 229K
20260507T06Z_MSC_RDPS_GeopotentialHeight_IsbL-0225_RLatLon0.09_PT080H.grib2 2026-05-07 09:04 230K
20260507T06Z_MSC_RDPS_GeopotentialHeight_IsbL-0250_RLatLon0.09_PT080H.grib2 2026-05-07 09:04 232K
20260507T06Z_MSC_RDPS_GeopotentialHeight_IsbL-0275_RLatLon0.09_PT080H.grib2 2026-05-07 09:04 233K
20260507T06Z_MSC_RDPS_GeopotentialHeight_IsbL-0300_RLatLon0.09_PT080H.grib2 2026-05-07 09:04 233K
20260507T06Z_MSC_RDPS_GeopotentialHeight_IsbL-0350_RLatLon0.09_PT080H.grib2 2026-05-07 09:04 229K
20260507T06Z_MSC_RDPS_GeopotentialHeight_IsbL-0400_RLatLon0.09_PT080H.grib2 2026-05-07 09:04 225K
20260507T06Z_MSC_RDPS_GeopotentialHeight_IsbL-0450_RLatLon0.09_PT080H.grib2 2026-05-07 09:04 292K
20260507T06Z_MSC_RDPS_GeopotentialHeight_IsbL-0500_RLatLon0.09_PT080H.grib2 2026-05-07 09:04 287K
20260507T06Z_MSC_RDPS_GeopotentialHeight_IsbL-0550_RLatLon0.09_PT080H.grib2 2026-05-07 09:04 283K
20260507T06Z_MSC_RDPS_GeopotentialHeight_IsbL-0600_RLatLon0.09_PT080H.grib2 2026-05-07 09:04 281K
20260507T06Z_MSC_RDPS_GeopotentialHeight_IsbL-0650_RLatLon0.09_PT080H.grib2 2026-05-07 09:04 250K
20260507T06Z_MSC_RDPS_GeopotentialHeight_IsbL-0700_RLatLon0.09_PT080H.grib2 2026-05-07 09:04 250K
20260507T06Z_MSC_RDPS_GeopotentialHeight_IsbL-0750_RLatLon0.09_PT080H.grib2 2026-05-07 09:04 253K
20260507T06Z_MSC_RDPS_GeopotentialHeight_IsbL-0800_RLatLon0.09_PT080H.grib2 2026-05-07 09:04 346K
20260507T06Z_MSC_RDPS_GeopotentialHeight_IsbL-0850_RLatLon0.09_PT080H.grib2 2026-05-07 09:04 357K
20260507T06Z_MSC_RDPS_GeopotentialHeight_IsbL-0875_RLatLon0.09_PT080H.grib2 2026-05-07 09:04 361K
20260507T06Z_MSC_RDPS_GeopotentialHeight_IsbL-0900_RLatLon0.09_PT080H.grib2 2026-05-07 09:04 364K
20260507T06Z_MSC_RDPS_GeopotentialHeight_IsbL-0925_RLatLon0.09_PT080H.grib2 2026-05-07 09:04 367K
20260507T06Z_MSC_RDPS_GeopotentialHeight_IsbL-0950_RLatLon0.09_PT080H.grib2 2026-05-07 09:04 370K
20260507T06Z_MSC_RDPS_GeopotentialHeight_IsbL-0970_RLatLon0.09_PT080H.grib2 2026-05-07 09:04 376K
20260507T06Z_MSC_RDPS_GeopotentialHeight_IsbL-0985_RLatLon0.09_PT080H.grib2 2026-05-07 09:04 385K
20260507T06Z_MSC_RDPS_GeopotentialHeight_IsbL-1000_RLatLon0.09_PT080H.grib2 2026-05-07 09:04 398K
20260507T06Z_MSC_RDPS_GeopotentialHeight_IsbL-1015_RLatLon0.09_PT080H.grib2 2026-05-07 09:04 416K
20260507T06Z_MSC_RDPS_HighLowPressure_MSL_RLatLon0.09_PT080H.json 2026-05-07 08:56 20K
20260507T06Z_MSC_RDPS_Humidex_Sfc_RLatLon0.09_PT080H.grib2 2026-05-07 09:04 2.4M
20260507T06Z_MSC_RDPS_IcePellets-Accum1h_Sfc_RLatLon0.09_PT080H.grib2 2026-05-07 09:04 15K
20260507T06Z_MSC_RDPS_IcePellets-Accum_Sfc_RLatLon0.09_PT080H.grib2 2026-05-07 09:04 33K
20260507T06Z_MSC_RDPS_KIndex_Sfc_RLatLon0.09_PT080H.grib2 2026-05-07 09:04 2.5M
20260507T06Z_MSC_RDPS_LatentHeatNetFlux_Sfc_RLatLon0.09_PT080H.grib2 2026-05-07 09:04 377K
20260507T06Z_MSC_RDPS_LiftedIndex-MU-VT_IsbL-0500_RLatLon0.09_PT080H.grib2 2026-05-07 09:04 2.4M
20260507T06Z_MSC_RDPS_NetLongwaveRadiationFlux-Accum_Sfc_RLatLon0.09_PT080H.grib2 2026-05-07 09:04 489K
20260507T06Z_MSC_RDPS_NetShortwaveRadiationFlux-Accum_Sfc_RLatLon0.09_PT080H.grib2 2026-05-07 09:04 643K
20260507T06Z_MSC_RDPS_PlanetaryBoundaryLayerHeight_Sfc_RLatLon0.09_PT080H.grib2 2026-05-07 09:04 1.1M
20260507T06Z_MSC_RDPS_Precip-Accum1h_Sfc_RLatLon0.09_PT080H.grib2 2026-05-07 09:04 1.3M
20260507T06Z_MSC_RDPS_Precip-Accum_Sfc_RLatLon0.09_PT080H.grib2 2026-05-07 09:04 2.1M
20260507T06Z_MSC_RDPS_PrecipRate_Sfc_RLatLon0.09_PT080H.grib2 2026-05-07 09:04 193K
20260507T06Z_MSC_RDPS_PrecipType-Instant_Sfc_RLatLon0.09_PT080H.grib2 2026-05-07 09:04 596K
20260507T06Z_MSC_RDPS_Pressure-Trend3h_Sfc_RLatLon0.09_PT080H.grib2 2026-05-07 09:04 1.2M
20260507T06Z_MSC_RDPS_Pressure_MSL_RLatLon0.09_PT080H.grib2 2026-05-07 09:04 326K
20260507T06Z_MSC_RDPS_Pressure_PVU-1.5_RLatLon0.09_PT080H.grib2 2026-05-07 09:04 2.5M
20260507T06Z_MSC_RDPS_Pressure_PVU-1_RLatLon0.09_PT080H.grib2 2026-05-07 09:04 2.4M
20260507T06Z_MSC_RDPS_Pressure_PVU-2_RLatLon0.09_PT080H.grib2 2026-05-07 09:04 2.4M
20260507T06Z_MSC_RDPS_Pressure_Sfc_RLatLon0.09_PT080H.grib2 2026-05-07 09:04 499K
20260507T06Z_MSC_RDPS_RadiativeTemp_Sfc_RLatLon0.09_PT080H.grib2 2026-05-07 09:04 310K
20260507T06Z_MSC_RDPS_Rain-Accum1h_Sfc_RLatLon0.09_PT080H.grib2 2026-05-07 09:04 654K
20260507T06Z_MSC_RDPS_Rain-Accum_Sfc_RLatLon0.09_PT080H.grib2 2026-05-07 09:04 1.9M
20260507T06Z_MSC_RDPS_RelativeHumidity_AGL-2m_RLatLon0.09_PT080H.grib2 2026-05-07 09:04 1.0M
20260507T06Z_MSC_RDPS_RelativeHumidity_IsbL-0010_RLatLon0.09_PT080H.grib2 2026-05-07 09:04 577K
20260507T06Z_MSC_RDPS_RelativeHumidity_IsbL-0020_RLatLon0.09_PT080H.grib2 2026-05-07 09:04 623K
20260507T06Z_MSC_RDPS_RelativeHumidity_IsbL-0030_RLatLon0.09_PT080H.grib2 2026-05-07 09:04 625K
20260507T06Z_MSC_RDPS_RelativeHumidity_IsbL-0050_RLatLon0.09_PT080H.grib2 2026-05-07 09:04 352K
20260507T06Z_MSC_RDPS_RelativeHumidity_IsbL-0100_RLatLon0.09_PT080H.grib2 2026-05-07 09:04 275K
20260507T06Z_MSC_RDPS_RelativeHumidity_IsbL-0150_RLatLon0.09_PT080H.grib2 2026-05-07 09:04 403K
20260507T06Z_MSC_RDPS_RelativeHumidity_IsbL-0175_RLatLon0.09_PT080H.grib2 2026-05-07 09:04 458K
20260507T06Z_MSC_RDPS_RelativeHumidity_IsbL-0200_RLatLon0.09_PT080H.grib2 2026-05-07 09:04 530K
20260507T06Z_MSC_RDPS_RelativeHumidity_IsbL-0225_RLatLon0.09_PT080H.grib2 2026-05-07 09:04 606K
20260507T06Z_MSC_RDPS_RelativeHumidity_IsbL-0250_RLatLon0.09_PT080H.grib2 2026-05-07 09:04 694K
20260507T06Z_MSC_RDPS_RelativeHumidity_IsbL-0275_RLatLon0.09_PT080H.grib2 2026-05-07 09:04 722K
20260507T06Z_MSC_RDPS_RelativeHumidity_IsbL-0300_RLatLon0.09_PT080H.grib2 2026-05-07 09:04 758K
20260507T06Z_MSC_RDPS_RelativeHumidity_IsbL-0350_RLatLon0.09_PT080H.grib2 2026-05-07 09:04 770K
20260507T06Z_MSC_RDPS_RelativeHumidity_IsbL-0400_RLatLon0.09_PT080H.grib2 2026-05-07 09:04 787K
20260507T06Z_MSC_RDPS_RelativeHumidity_IsbL-0450_RLatLon0.09_PT080H.grib2 2026-05-07 09:04 797K
20260507T06Z_MSC_RDPS_RelativeHumidity_IsbL-0500_RLatLon0.09_PT080H.grib2 2026-05-07 09:04 798K
20260507T06Z_MSC_RDPS_RelativeHumidity_IsbL-0550_RLatLon0.09_PT080H.grib2 2026-05-07 09:04 810K
20260507T06Z_MSC_RDPS_RelativeHumidity_IsbL-0600_RLatLon0.09_PT080H.grib2 2026-05-07 09:04 830K
20260507T06Z_MSC_RDPS_RelativeHumidity_IsbL-0650_RLatLon0.09_PT080H.grib2 2026-05-07 09:04 845K
20260507T06Z_MSC_RDPS_RelativeHumidity_IsbL-0700_RLatLon0.09_PT080H.grib2 2026-05-07 09:04 877K
20260507T06Z_MSC_RDPS_RelativeHumidity_IsbL-0750_RLatLon0.09_PT080H.grib2 2026-05-07 09:04 918K
20260507T06Z_MSC_RDPS_RelativeHumidity_IsbL-0800_RLatLon0.09_PT080H.grib2 2026-05-07 09:04 1.0M
20260507T06Z_MSC_RDPS_RelativeHumidity_IsbL-0850_RLatLon0.09_PT080H.grib2 2026-05-07 09:04 1.0M
20260507T06Z_MSC_RDPS_RelativeHumidity_IsbL-0875_RLatLon0.09_PT080H.grib2 2026-05-07 09:04 1.1M
20260507T06Z_MSC_RDPS_RelativeHumidity_IsbL-0900_RLatLon0.09_PT080H.grib2 2026-05-07 09:04 1.1M
20260507T06Z_MSC_RDPS_RelativeHumidity_IsbL-0925_RLatLon0.09_PT080H.grib2 2026-05-07 09:04 1.1M
20260507T06Z_MSC_RDPS_RelativeHumidity_IsbL-0950_RLatLon0.09_PT080H.grib2 2026-05-07 09:04 1.1M
20260507T06Z_MSC_RDPS_RelativeHumidity_IsbL-0970_RLatLon0.09_PT080H.grib2 2026-05-07 09:04 1.1M
20260507T06Z_MSC_RDPS_RelativeHumidity_IsbL-0985_RLatLon0.09_PT080H.grib2 2026-05-07 09:04 1.0M
20260507T06Z_MSC_RDPS_RelativeHumidity_IsbL-1000_RLatLon0.09_PT080H.grib2 2026-05-07 09:04 1.0M
20260507T06Z_MSC_RDPS_RelativeHumidity_IsbL-1015_RLatLon0.09_PT080H.grib2 2026-05-07 09:04 1.0M
20260507T06Z_MSC_RDPS_Runoff-Accum_Sfc_RLatLon0.09_PT080H.grib2 2026-05-07 09:04 49K
20260507T06Z_MSC_RDPS_SWEATIndex_Sfc_RLatLon0.09_PT080H.grib2 2026-05-07 09:04 2.5M
20260507T06Z_MSC_RDPS_SeeingIndex_EAtm_RLatLon0.09_PT080H.grib2 2026-05-07 09:04 1.1M
20260507T06Z_MSC_RDPS_SensibleHeatNetFlux_Sfc_RLatLon0.09_PT080H.grib2 2026-05-07 09:04 256K
20260507T06Z_MSC_RDPS_ShowalterIndex_IsbL-0500_RLatLon0.09_PT080H.grib2 2026-05-07 09:04 2.6M
20260507T06Z_MSC_RDPS_SkyTransparencyIndex_EAtm_RLatLon0.09_PT080H.grib2 2026-05-07 09:04 696K
20260507T06Z_MSC_RDPS_Snow-Accum1h_Sfc_RLatLon0.09_PT080H.grib2 2026-05-07 09:04 448K
20260507T06Z_MSC_RDPS_Snow-Accum_Sfc_RLatLon0.09_PT080H.grib2 2026-05-07 09:04 697K
20260507T06Z_MSC_RDPS_SnowDensity_Sfc_RLatLon0.09_PT080H.grib2 2026-05-07 09:04 173K
20260507T06Z_MSC_RDPS_SnowDepth_Sfc_RLatLon0.09_PT080H.grib2 2026-05-07 09:04 625K
20260507T06Z_MSC_RDPS_SoilTemp_DBS-0to10cm_RLatLon0.09_PT080H.grib2 2026-05-07 09:04 243K
20260507T06Z_MSC_RDPS_SoilTemp_Sfc_RLatLon0.09_PT080H.grib2 2026-05-07 09:04 284K
20260507T06Z_MSC_RDPS_SoilVolumetricIceContent_Sfc_RLatLon0.09_PT080H.grib2 2026-05-07 09:04 143K
20260507T06Z_MSC_RDPS_SoilVolumetricWaterContent_DBS-0to10cm_RLatLon0.09_PT080H.grib2 2026-05-07 09:04 293K
20260507T06Z_MSC_RDPS_SoilVolumetricWaterContent_DBS-0to1cm_RLatLon0.09_PT080H.grib2 2026-05-07 09:04 342K
20260507T06Z_MSC_RDPS_SpecificHumidity_AGL-120m_RLatLon0.09_PT080H.grib2 2026-05-07 09:04 507K
20260507T06Z_MSC_RDPS_SpecificHumidity_AGL-2m_RLatLon0.09_PT080H.grib2 2026-05-07 09:04 676K
20260507T06Z_MSC_RDPS_SpecificHumidity_AGL-40m_RLatLon0.09_PT080H.grib2 2026-05-07 09:04 512K
20260507T06Z_MSC_RDPS_SpecificHumidity_AGL-80m_RLatLon0.09_PT080H.grib2 2026-05-07 09:04 509K
20260507T06Z_MSC_RDPS_SpecificHumidity_IsbL-0001_RLatLon0.09_PT080H.grib2 2026-05-07 09:04 360K
20260507T06Z_MSC_RDPS_SpecificHumidity_IsbL-0005_RLatLon0.09_PT080H.grib2 2026-05-07 09:04 361K
20260507T06Z_MSC_RDPS_SpecificHumidity_IsbL-0010_RLatLon0.09_PT080H.grib2 2026-05-07 09:04 388K
20260507T06Z_MSC_RDPS_SpecificHumidity_IsbL-0020_RLatLon0.09_PT080H.grib2 2026-05-07 09:04 483K
20260507T06Z_MSC_RDPS_SpecificHumidity_IsbL-0030_RLatLon0.09_PT080H.grib2 2026-05-07 09:04 364K
20260507T06Z_MSC_RDPS_SpecificHumidity_IsbL-0050_RLatLon0.09_PT080H.grib2 2026-05-07 09:04 361K
20260507T06Z_MSC_RDPS_SpecificHumidity_IsbL-0100_RLatLon0.09_PT080H.grib2 2026-05-07 09:04 402K
20260507T06Z_MSC_RDPS_SpecificHumidity_IsbL-0150_RLatLon0.09_PT080H.grib2 2026-05-07 09:04 466K
20260507T06Z_MSC_RDPS_SpecificHumidity_IsbL-0175_RLatLon0.09_PT080H.grib2 2026-05-07 09:04 522K
20260507T06Z_MSC_RDPS_SpecificHumidity_IsbL-0200_RLatLon0.09_PT080H.grib2 2026-05-07 09:04 440K
20260507T06Z_MSC_RDPS_SpecificHumidity_IsbL-0225_RLatLon0.09_PT080H.grib2 2026-05-07 09:04 448K
20260507T06Z_MSC_RDPS_SpecificHumidity_IsbL-0250_RLatLon0.09_PT080H.grib2 2026-05-07 09:04 564K
20260507T06Z_MSC_RDPS_SpecificHumidity_IsbL-0275_RLatLon0.09_PT080H.grib2 2026-05-07 09:04 479K
20260507T06Z_MSC_RDPS_SpecificHumidity_IsbL-0300_RLatLon0.09_PT080H.grib2 2026-05-07 09:04 548K
20260507T06Z_MSC_RDPS_SpecificHumidity_IsbL-0350_RLatLon0.09_PT080H.grib2 2026-05-07 09:04 541K
20260507T06Z_MSC_RDPS_SpecificHumidity_IsbL-0400_RLatLon0.09_PT080H.grib2 2026-05-07 09:04 525K
20260507T06Z_MSC_RDPS_SpecificHumidity_IsbL-0450_RLatLon0.09_PT080H.grib2 2026-05-07 09:04 580K
20260507T06Z_MSC_RDPS_SpecificHumidity_IsbL-0500_RLatLon0.09_PT080H.grib2 2026-05-07 09:04 514K
20260507T06Z_MSC_RDPS_SpecificHumidity_IsbL-0550_RLatLon0.09_PT080H.grib2 2026-05-07 09:04 583K
20260507T06Z_MSC_RDPS_SpecificHumidity_IsbL-0600_RLatLon0.09_PT080H.grib2 2026-05-07 09:04 636K
20260507T06Z_MSC_RDPS_SpecificHumidity_IsbL-0650_RLatLon0.09_PT080H.grib2 2026-05-07 09:04 556K
20260507T06Z_MSC_RDPS_SpecificHumidity_IsbL-0700_RLatLon0.09_PT080H.grib2 2026-05-07 09:04 602K
20260507T06Z_MSC_RDPS_SpecificHumidity_IsbL-0750_RLatLon0.09_PT080H.grib2 2026-05-07 09:04 660K
20260507T06Z_MSC_RDPS_SpecificHumidity_IsbL-0800_RLatLon0.09_PT080H.grib2 2026-05-07 09:04 753K
20260507T06Z_MSC_RDPS_SpecificHumidity_IsbL-0850_RLatLon0.09_PT080H.grib2 2026-05-07 09:04 820K
20260507T06Z_MSC_RDPS_SpecificHumidity_IsbL-0875_RLatLon0.09_PT080H.grib2 2026-05-07 09:04 838K
20260507T06Z_MSC_RDPS_SpecificHumidity_IsbL-0900_RLatLon0.09_PT080H.grib2 2026-05-07 09:04 846K
20260507T06Z_MSC_RDPS_SpecificHumidity_IsbL-0925_RLatLon0.09_PT080H.grib2 2026-05-07 09:04 850K
20260507T06Z_MSC_RDPS_SpecificHumidity_IsbL-0950_RLatLon0.09_PT080H.grib2 2026-05-07 09:04 854K
20260507T06Z_MSC_RDPS_SpecificHumidity_IsbL-0970_RLatLon0.09_PT080H.grib2 2026-05-07 09:04 854K
20260507T06Z_MSC_RDPS_SpecificHumidity_IsbL-0985_RLatLon0.09_PT080H.grib2 2026-05-07 09:04 708K
20260507T06Z_MSC_RDPS_SpecificHumidity_IsbL-1000_RLatLon0.09_PT080H.grib2 2026-05-07 09:04 704K
20260507T06Z_MSC_RDPS_SpecificHumidity_IsbL-1015_RLatLon0.09_PT080H.grib2 2026-05-07 09:04 692K
20260507T06Z_MSC_RDPS_SpecificHumidity_Sfc_RLatLon0.09_PT080H.grib2 2026-05-07 09:04 318K
20260507T06Z_MSC_RDPS_StormRelativeHelicity_EtaL-10000_RLatLon0.09_PT080H.grib2 2026-05-07 09:04 1.2M
20260507T06Z_MSC_RDPS_StormSeverityIndex_EtaL-10000_RLatLon0.09_PT080H.grib2 2026-05-07 09:04 1.2M
20260507T06Z_MSC_RDPS_Thickness_IsbL-0850to0700_RLatLon0.09_PT080H.grib2 2026-05-07 09:04 247K
20260507T06Z_MSC_RDPS_Thickness_IsbL-1000to0500_RLatLon0.09_PT080H.grib2 2026-05-07 09:04 194K
20260507T06Z_MSC_RDPS_Thickness_IsbL-1000to0850_RLatLon0.09_PT080H.grib2 2026-05-07 09:04 263K
20260507T06Z_MSC_RDPS_TotalCloudCover_Sfc_RLatLon0.09_PT080H.grib2 2026-05-07 09:04 672K
20260507T06Z_MSC_RDPS_TotalTotalsIndex_Sfc_RLatLon0.09_PT080H.grib2 2026-05-07 09:04 2.5M
20260507T06Z_MSC_RDPS_UVIndex-ClearSky_Sfc_RLatLon0.09_PT080H.grib2 2026-05-07 09:04 215K
20260507T06Z_MSC_RDPS_UVIndex_Sfc_RLatLon0.09_PT080H.grib2 2026-05-07 09:04 488K
20260507T06Z_MSC_RDPS_UpwardLongwaveRadiationFlux_NTAtm_RLatLon0.09_PT080H.grib2 2026-05-07 09:04 486K
20260507T06Z_MSC_RDPS_UpwardShortwaveRadiationFlux_NTAtm_RLatLon0.09_PT080H.grib2 2026-05-07 09:04 433K
20260507T06Z_MSC_RDPS_VerticalVelocity_IsbL-0250_RLatLon0.09_PT080H.grib2 2026-05-07 09:04 540K
20260507T06Z_MSC_RDPS_VerticalVelocity_IsbL-0500_RLatLon0.09_PT080H.grib2 2026-05-07 09:04 533K
20260507T06Z_MSC_RDPS_VerticalVelocity_IsbL-0700_RLatLon0.09_PT080H.grib2 2026-05-07 09:04 586K
20260507T06Z_MSC_RDPS_VerticalVelocity_IsbL-0850_RLatLon0.09_PT080H.grib2 2026-05-07 09:04 833K
20260507T06Z_MSC_RDPS_VerticalWindShear_EtaL-6500_RLatLon0.09_PT080H.grib2 2026-05-07 09:04 1.2M
20260507T06Z_MSC_RDPS_WindChill_Sfc_RLatLon0.09_PT080H.grib2 2026-05-07 09:04 1.2M
20260507T06Z_MSC_RDPS_WindDir_AGL-10m_RLatLon0.09_PT080H.grib2 2026-05-07 09:04 969K
20260507T06Z_MSC_RDPS_WindDir_AGL-120m_RLatLon0.09_PT080H.grib2 2026-05-07 09:04 610K
20260507T06Z_MSC_RDPS_WindDir_AGL-40m_RLatLon0.09_PT080H.grib2 2026-05-07 09:04 637K
20260507T06Z_MSC_RDPS_WindDir_AGL-80m_RLatLon0.09_PT080H.grib2 2026-05-07 09:04 621K
20260507T06Z_MSC_RDPS_WindDir_IsbL-0001_RLatLon0.09_PT080H.grib2 2026-05-07 09:04 272K
20260507T06Z_MSC_RDPS_WindDir_IsbL-0005_RLatLon0.09_PT080H.grib2 2026-05-07 09:04 383K
20260507T06Z_MSC_RDPS_WindDir_IsbL-0010_RLatLon0.09_PT080H.grib2 2026-05-07 09:04 374K
20260507T06Z_MSC_RDPS_WindDir_IsbL-0020_RLatLon0.09_PT080H.grib2 2026-05-07 09:04 425K
20260507T06Z_MSC_RDPS_WindDir_IsbL-0030_RLatLon0.09_PT080H.grib2 2026-05-07 09:04 414K
20260507T06Z_MSC_RDPS_WindDir_IsbL-0050_RLatLon0.09_PT080H.grib2 2026-05-07 09:04 442K
20260507T06Z_MSC_RDPS_WindDir_IsbL-0100_RLatLon0.09_PT080H.grib2 2026-05-07 09:04 418K
20260507T06Z_MSC_RDPS_WindDir_IsbL-0150_RLatLon0.09_PT080H.grib2 2026-05-07 09:04 409K
20260507T06Z_MSC_RDPS_WindDir_IsbL-0175_RLatLon0.09_PT080H.grib2 2026-05-07 09:04 434K
20260507T06Z_MSC_RDPS_WindDir_IsbL-0200_RLatLon0.09_PT080H.grib2 2026-05-07 09:04 450K
20260507T06Z_MSC_RDPS_WindDir_IsbL-0225_RLatLon0.09_PT080H.grib2 2026-05-07 09:04 459K
20260507T06Z_MSC_RDPS_WindDir_IsbL-0250_RLatLon0.09_PT080H.grib2 2026-05-07 09:04 462K
20260507T06Z_MSC_RDPS_WindDir_IsbL-0275_RLatLon0.09_PT080H.grib2 2026-05-07 09:04 487K
20260507T06Z_MSC_RDPS_WindDir_IsbL-0300_RLatLon0.09_PT080H.grib2 2026-05-07 09:04 484K
20260507T06Z_MSC_RDPS_WindDir_IsbL-0350_RLatLon0.09_PT080H.grib2 2026-05-07 09:04 501K
20260507T06Z_MSC_RDPS_WindDir_IsbL-0400_RLatLon0.09_PT080H.grib2 2026-05-07 09:04 521K
20260507T06Z_MSC_RDPS_WindDir_IsbL-0450_RLatLon0.09_PT080H.grib2 2026-05-07 09:04 539K
20260507T06Z_MSC_RDPS_WindDir_IsbL-0500_RLatLon0.09_PT080H.grib2 2026-05-07 09:04 555K
20260507T06Z_MSC_RDPS_WindDir_IsbL-0550_RLatLon0.09_PT080H.grib2 2026-05-07 09:04 571K
20260507T06Z_MSC_RDPS_WindDir_IsbL-0600_RLatLon0.09_PT080H.grib2 2026-05-07 09:04 589K
20260507T06Z_MSC_RDPS_WindDir_IsbL-0650_RLatLon0.09_PT080H.grib2 2026-05-07 09:04 624K
20260507T06Z_MSC_RDPS_WindDir_IsbL-0700_RLatLon0.09_PT080H.grib2 2026-05-07 09:04 666K
20260507T06Z_MSC_RDPS_WindDir_IsbL-0750_RLatLon0.09_PT080H.grib2 2026-05-07 09:04 712K
20260507T06Z_MSC_RDPS_WindDir_IsbL-0800_RLatLon0.09_PT080H.grib2 2026-05-07 09:04 782K
20260507T06Z_MSC_RDPS_WindDir_IsbL-0850_RLatLon0.09_PT080H.grib2 2026-05-07 09:04 854K
20260507T06Z_MSC_RDPS_WindDir_IsbL-0875_RLatLon0.09_PT080H.grib2 2026-05-07 09:04 881K
20260507T06Z_MSC_RDPS_WindDir_IsbL-0900_RLatLon0.09_PT080H.grib2 2026-05-07 09:04 902K
20260507T06Z_MSC_RDPS_WindDir_IsbL-0925_RLatLon0.09_PT080H.grib2 2026-05-07 09:04 912K
20260507T06Z_MSC_RDPS_WindDir_IsbL-0950_RLatLon0.09_PT080H.grib2 2026-05-07 09:04 916K
20260507T06Z_MSC_RDPS_WindDir_IsbL-0970_RLatLon0.09_PT080H.grib2 2026-05-07 09:04 917K
20260507T06Z_MSC_RDPS_WindDir_IsbL-0985_RLatLon0.09_PT080H.grib2 2026-05-07 09:04 927K
20260507T06Z_MSC_RDPS_WindDir_IsbL-1000_RLatLon0.09_PT080H.grib2 2026-05-07 09:04 945K
20260507T06Z_MSC_RDPS_WindDir_IsbL-1015_RLatLon0.09_PT080H.grib2 2026-05-07 09:04 961K
20260507T06Z_MSC_RDPS_WindGust-Max_AGL-10m_RLatLon0.09_PT080H.grib2 2026-05-07 09:04 1.0M
20260507T06Z_MSC_RDPS_WindGust-Min_AGL-10m_RLatLon0.09_PT080H.grib2 2026-05-07 09:04 1.0M
20260507T06Z_MSC_RDPS_WindGust_AGL-10m_RLatLon0.09_PT080H.grib2 2026-05-07 09:04 1.0M
20260507T06Z_MSC_RDPS_WindSpeed_AGL-10m_RLatLon0.09_PT080H.grib2 2026-05-07 09:04 1.0M
20260507T06Z_MSC_RDPS_WindSpeed_AGL-120m_RLatLon0.09_PT080H.grib2 2026-05-07 09:04 677K
20260507T06Z_MSC_RDPS_WindSpeed_AGL-40m_RLatLon0.09_PT080H.grib2 2026-05-07 09:04 677K
20260507T06Z_MSC_RDPS_WindSpeed_AGL-80m_RLatLon0.09_PT080H.grib2 2026-05-07 09:04 676K
20260507T06Z_MSC_RDPS_WindSpeed_IsbL-0001_RLatLon0.09_PT080H.grib2 2026-05-07 09:04 256K
20260507T06Z_MSC_RDPS_WindSpeed_IsbL-0005_RLatLon0.09_PT080H.grib2 2026-05-07 09:04 384K
20260507T06Z_MSC_RDPS_WindSpeed_IsbL-0010_RLatLon0.09_PT080H.grib2 2026-05-07 09:04 393K
20260507T06Z_MSC_RDPS_WindSpeed_IsbL-0020_RLatLon0.09_PT080H.grib2 2026-05-07 09:04 323K
20260507T06Z_MSC_RDPS_WindSpeed_IsbL-0030_RLatLon0.09_PT080H.grib2 2026-05-07 09:04 318K
20260507T06Z_MSC_RDPS_WindSpeed_IsbL-0050_RLatLon0.09_PT080H.grib2 2026-05-07 09:04 343K
20260507T06Z_MSC_RDPS_WindSpeed_IsbL-0100_RLatLon0.09_PT080H.grib2 2026-05-07 09:04 475K
20260507T06Z_MSC_RDPS_WindSpeed_IsbL-0150_RLatLon0.09_PT080H.grib2 2026-05-07 09:04 369K
20260507T06Z_MSC_RDPS_WindSpeed_IsbL-0175_RLatLon0.09_PT080H.grib2 2026-05-07 09:04 396K
20260507T06Z_MSC_RDPS_WindSpeed_IsbL-0200_RLatLon0.09_PT080H.grib2 2026-05-07 09:04 412K
20260507T06Z_MSC_RDPS_WindSpeed_IsbL-0225_RLatLon0.09_PT080H.grib2 2026-05-07 09:04 441K
20260507T06Z_MSC_RDPS_WindSpeed_IsbL-0250_RLatLon0.09_PT080H.grib2 2026-05-07 09:04 446K
20260507T06Z_MSC_RDPS_WindSpeed_IsbL-0275_RLatLon0.09_PT080H.grib2 2026-05-07 09:04 465K
20260507T06Z_MSC_RDPS_WindSpeed_IsbL-0300_RLatLon0.09_PT080H.grib2 2026-05-07 09:04 462K
20260507T06Z_MSC_RDPS_WindSpeed_IsbL-0350_RLatLon0.09_PT080H.grib2 2026-05-07 09:04 472K
20260507T06Z_MSC_RDPS_WindSpeed_IsbL-0400_RLatLon0.09_PT080H.grib2 2026-05-07 09:04 476K
20260507T06Z_MSC_RDPS_WindSpeed_IsbL-0450_RLatLon0.09_PT080H.grib2 2026-05-07 09:04 462K
20260507T06Z_MSC_RDPS_WindSpeed_IsbL-0500_RLatLon0.09_PT080H.grib2 2026-05-07 09:04 462K
20260507T06Z_MSC_RDPS_WindSpeed_IsbL-0550_RLatLon0.09_PT080H.grib2 2026-05-07 09:04 579K
20260507T06Z_MSC_RDPS_WindSpeed_IsbL-0600_RLatLon0.09_PT080H.grib2 2026-05-07 09:04 588K
20260507T06Z_MSC_RDPS_WindSpeed_IsbL-0650_RLatLon0.09_PT080H.grib2 2026-05-07 09:04 603K
20260507T06Z_MSC_RDPS_WindSpeed_IsbL-0700_RLatLon0.09_PT080H.grib2 2026-05-07 09:04 628K
20260507T06Z_MSC_RDPS_WindSpeed_IsbL-0750_RLatLon0.09_PT080H.grib2 2026-05-07 09:04 706K
20260507T06Z_MSC_RDPS_WindSpeed_IsbL-0800_RLatLon0.09_PT080H.grib2 2026-05-07 09:04 750K
20260507T06Z_MSC_RDPS_WindSpeed_IsbL-0850_RLatLon0.09_PT080H.grib2 2026-05-07 09:04 812K
20260507T06Z_MSC_RDPS_WindSpeed_IsbL-0875_RLatLon0.09_PT080H.grib2 2026-05-07 09:04 833K
20260507T06Z_MSC_RDPS_WindSpeed_IsbL-0900_RLatLon0.09_PT080H.grib2 2026-05-07 09:04 850K
20260507T06Z_MSC_RDPS_WindSpeed_IsbL-0925_RLatLon0.09_PT080H.grib2 2026-05-07 09:04 864K
20260507T06Z_MSC_RDPS_WindSpeed_IsbL-0950_RLatLon0.09_PT080H.grib2 2026-05-07 09:04 866K
20260507T06Z_MSC_RDPS_WindSpeed_IsbL-0970_RLatLon0.09_PT080H.grib2 2026-05-07 09:04 863K
20260507T06Z_MSC_RDPS_WindSpeed_IsbL-0985_RLatLon0.09_PT080H.grib2 2026-05-07 09:04 858K
20260507T06Z_MSC_RDPS_WindSpeed_IsbL-1000_RLatLon0.09_PT080H.grib2 2026-05-07 09:04 854K
20260507T06Z_MSC_RDPS_WindSpeed_IsbL-1015_RLatLon0.09_PT080H.grib2 2026-05-07 09:04 1.0M
20260507T06Z_MSC_RDPS_WindU_AGL-10m_RLatLon0.09_PT080H.grib2 2026-05-07 09:04 436K
20260507T06Z_MSC_RDPS_WindU_AGL-120m_RLatLon0.09_PT080H.grib2 2026-05-07 09:04 540K
20260507T06Z_MSC_RDPS_WindU_AGL-40m_RLatLon0.09_PT080H.grib2 2026-05-07 09:04 541K
20260507T06Z_MSC_RDPS_WindU_AGL-80m_RLatLon0.09_PT080H.grib2 2026-05-07 09:04 541K
20260507T06Z_MSC_RDPS_WindU_IsbL-0001_RLatLon0.09_PT080H.grib2 2026-05-07 09:04 246K
20260507T06Z_MSC_RDPS_WindU_IsbL-0005_RLatLon0.09_PT080H.grib2 2026-05-07 09:04 284K
20260507T06Z_MSC_RDPS_WindU_IsbL-0010_RLatLon0.09_PT080H.grib2 2026-05-07 09:04 294K
20260507T06Z_MSC_RDPS_WindU_IsbL-0020_RLatLon0.09_PT080H.grib2 2026-05-07 09:04 351K
20260507T06Z_MSC_RDPS_WindU_IsbL-0030_RLatLon0.09_PT080H.grib2 2026-05-07 09:04 310K
20260507T06Z_MSC_RDPS_WindU_IsbL-0050_RLatLon0.09_PT080H.grib2 2026-05-07 09:04 338K
20260507T06Z_MSC_RDPS_WindU_IsbL-0100_RLatLon0.09_PT080H.grib2 2026-05-07 09:04 430K
20260507T06Z_MSC_RDPS_WindU_IsbL-0150_RLatLon0.09_PT080H.grib2 2026-05-07 09:04 361K
20260507T06Z_MSC_RDPS_WindU_IsbL-0175_RLatLon0.09_PT080H.grib2 2026-05-07 09:04 410K
20260507T06Z_MSC_RDPS_WindU_IsbL-0200_RLatLon0.09_PT080H.grib2 2026-05-07 09:04 425K
20260507T06Z_MSC_RDPS_WindU_IsbL-0225_RLatLon0.09_PT080H.grib2 2026-05-07 09:04 431K
20260507T06Z_MSC_RDPS_WindU_IsbL-0250_RLatLon0.09_PT080H.grib2 2026-05-07 09:04 435K
20260507T06Z_MSC_RDPS_WindU_IsbL-0275_RLatLon0.09_PT080H.grib2 2026-05-07 09:04 353K
20260507T06Z_MSC_RDPS_WindU_IsbL-0300_RLatLon0.09_PT080H.grib2 2026-05-07 09:04 349K
20260507T06Z_MSC_RDPS_WindU_IsbL-0350_RLatLon0.09_PT080H.grib2 2026-05-07 09:04 357K
20260507T06Z_MSC_RDPS_WindU_IsbL-0400_RLatLon0.09_PT080H.grib2 2026-05-07 09:04 464K
20260507T06Z_MSC_RDPS_WindU_IsbL-0450_RLatLon0.09_PT080H.grib2 2026-05-07 09:04 467K
20260507T06Z_MSC_RDPS_WindU_IsbL-0500_RLatLon0.09_PT080H.grib2 2026-05-07 09:04 468K
20260507T06Z_MSC_RDPS_WindU_IsbL-0550_RLatLon0.09_PT080H.grib2 2026-05-07 09:04 469K
20260507T06Z_MSC_RDPS_WindU_IsbL-0600_RLatLon0.09_PT080H.grib2 2026-05-07 09:04 459K
20260507T06Z_MSC_RDPS_WindU_IsbL-0650_RLatLon0.09_PT080H.grib2 2026-05-07 09:04 474K
20260507T06Z_MSC_RDPS_WindU_IsbL-0700_RLatLon0.09_PT080H.grib2 2026-05-07 09:04 497K
20260507T06Z_MSC_RDPS_WindU_IsbL-0750_RLatLon0.09_PT080H.grib2 2026-05-07 09:04 651K
20260507T06Z_MSC_RDPS_WindU_IsbL-0800_RLatLon0.09_PT080H.grib2 2026-05-07 09:04 573K
20260507T06Z_MSC_RDPS_WindU_IsbL-0850_RLatLon0.09_PT080H.grib2 2026-05-07 09:04 760K
20260507T06Z_MSC_RDPS_WindU_IsbL-0875_RLatLon0.09_PT080H.grib2 2026-05-07 09:04 779K
20260507T06Z_MSC_RDPS_WindU_IsbL-0900_RLatLon0.09_PT080H.grib2 2026-05-07 09:04 655K
20260507T06Z_MSC_RDPS_WindU_IsbL-0925_RLatLon0.09_PT080H.grib2 2026-05-07 09:04 802K
20260507T06Z_MSC_RDPS_WindU_IsbL-0950_RLatLon0.09_PT080H.grib2 2026-05-07 09:04 801K
20260507T06Z_MSC_RDPS_WindU_IsbL-0970_RLatLon0.09_PT080H.grib2 2026-05-07 09:04 796K
20260507T06Z_MSC_RDPS_WindU_IsbL-0985_RLatLon0.09_PT080H.grib2 2026-05-07 09:04 793K
20260507T06Z_MSC_RDPS_WindU_IsbL-1000_RLatLon0.09_PT080H.grib2 2026-05-07 09:04 790K
20260507T06Z_MSC_RDPS_WindU_IsbL-1015_RLatLon0.09_PT080H.grib2 2026-05-07 09:04 832K
20260507T06Z_MSC_RDPS_WindV_AGL-10m_RLatLon0.09_PT080H.grib2 2026-05-07 09:04 434K
20260507T06Z_MSC_RDPS_WindV_AGL-120m_RLatLon0.09_PT080H.grib2 2026-05-07 09:04 540K
20260507T06Z_MSC_RDPS_WindV_AGL-40m_RLatLon0.09_PT080H.grib2 2026-05-07 09:04 540K
20260507T06Z_MSC_RDPS_WindV_AGL-80m_RLatLon0.09_PT080H.grib2 2026-05-07 09:04 540K
20260507T06Z_MSC_RDPS_WindV_IsbL-0001_RLatLon0.09_PT080H.grib2 2026-05-07 09:04 247K
20260507T06Z_MSC_RDPS_WindV_IsbL-0005_RLatLon0.09_PT080H.grib2 2026-05-07 09:04 284K
20260507T06Z_MSC_RDPS_WindV_IsbL-0010_RLatLon0.09_PT080H.grib2 2026-05-07 09:04 295K
20260507T06Z_MSC_RDPS_WindV_IsbL-0020_RLatLon0.09_PT080H.grib2 2026-05-07 09:04 313K
20260507T06Z_MSC_RDPS_WindV_IsbL-0030_RLatLon0.09_PT080H.grib2 2026-05-07 09:04 311K
20260507T06Z_MSC_RDPS_WindV_IsbL-0050_RLatLon0.09_PT080H.grib2 2026-05-07 09:04 337K
20260507T06Z_MSC_RDPS_WindV_IsbL-0100_RLatLon0.09_PT080H.grib2 2026-05-07 09:04 425K
20260507T06Z_MSC_RDPS_WindV_IsbL-0150_RLatLon0.09_PT080H.grib2 2026-05-07 09:04 383K
20260507T06Z_MSC_RDPS_WindV_IsbL-0175_RLatLon0.09_PT080H.grib2 2026-05-07 09:04 408K
20260507T06Z_MSC_RDPS_WindV_IsbL-0200_RLatLon0.09_PT080H.grib2 2026-05-07 09:04 328K
20260507T06Z_MSC_RDPS_WindV_IsbL-0225_RLatLon0.09_PT080H.grib2 2026-05-07 09:04 333K
20260507T06Z_MSC_RDPS_WindV_IsbL-0250_RLatLon0.09_PT080H.grib2 2026-05-07 09:04 361K
20260507T06Z_MSC_RDPS_WindV_IsbL-0275_RLatLon0.09_PT080H.grib2 2026-05-07 09:04 376K
20260507T06Z_MSC_RDPS_WindV_IsbL-0300_RLatLon0.09_PT080H.grib2 2026-05-07 09:04 372K
20260507T06Z_MSC_RDPS_WindV_IsbL-0350_RLatLon0.09_PT080H.grib2 2026-05-07 09:04 356K
20260507T06Z_MSC_RDPS_WindV_IsbL-0400_RLatLon0.09_PT080H.grib2 2026-05-07 09:04 360K
20260507T06Z_MSC_RDPS_WindV_IsbL-0450_RLatLon0.09_PT080H.grib2 2026-05-07 09:04 464K
20260507T06Z_MSC_RDPS_WindV_IsbL-0500_RLatLon0.09_PT080H.grib2 2026-05-07 09:04 464K
20260507T06Z_MSC_RDPS_WindV_IsbL-0550_RLatLon0.09_PT080H.grib2 2026-05-07 09:04 464K
20260507T06Z_MSC_RDPS_WindV_IsbL-0600_RLatLon0.09_PT080H.grib2 2026-05-07 09:04 472K
20260507T06Z_MSC_RDPS_WindV_IsbL-0650_RLatLon0.09_PT080H.grib2 2026-05-07 09:04 471K
20260507T06Z_MSC_RDPS_WindV_IsbL-0700_RLatLon0.09_PT080H.grib2 2026-05-07 09:04 492K
20260507T06Z_MSC_RDPS_WindV_IsbL-0750_RLatLon0.09_PT080H.grib2 2026-05-07 09:04 522K
20260507T06Z_MSC_RDPS_WindV_IsbL-0800_RLatLon0.09_PT080H.grib2 2026-05-07 09:04 569K
20260507T06Z_MSC_RDPS_WindV_IsbL-0850_RLatLon0.09_PT080H.grib2 2026-05-07 09:04 621K
20260507T06Z_MSC_RDPS_WindV_IsbL-0875_RLatLon0.09_PT080H.grib2 2026-05-07 09:04 638K
20260507T06Z_MSC_RDPS_WindV_IsbL-0900_RLatLon0.09_PT080H.grib2 2026-05-07 09:04 652K
20260507T06Z_MSC_RDPS_WindV_IsbL-0925_RLatLon0.09_PT080H.grib2 2026-05-07 09:04 661K
20260507T06Z_MSC_RDPS_WindV_IsbL-0950_RLatLon0.09_PT080H.grib2 2026-05-07 09:04 801K
20260507T06Z_MSC_RDPS_WindV_IsbL-0970_RLatLon0.09_PT080H.grib2 2026-05-07 09:04 796K
20260507T06Z_MSC_RDPS_WindV_IsbL-0985_RLatLon0.09_PT080H.grib2 2026-05-07 09:04 792K
20260507T06Z_MSC_RDPS_WindV_IsbL-1000_RLatLon0.09_PT080H.grib2 2026-05-07 09:04 835K
20260507T06Z_MSC_RDPS_WindV_IsbL-1015_RLatLon0.09_PT080H.grib2 2026-05-07 09:04 830K